Wind_Speed
30 31 32 32 33 33 33 34 35 36 37 38 38 38 38 38 38 38 39 40 41 42 43 43 44 43 43 42 42 42 41 42 42 43 44 46 48 51 54 58 60 62 64 65 66 68 69 70 70 71 72 72 73 74 75 76 77 78 78 78 79 79 79 79 79 80 80 80 80 80 80 80 80 80 80 81 81 82 82 82 82 82 82 82 83 84 85 85
22 24 25 27 28 30 31 31 32 33 33 34 34 34 34 34 34 34 35 35 36 37 37 37 37 36 36 36 36 36 36 36 37 37 38 39 41 44 46 49 51 53 55 57 58 60 62 63 64 66 67 68 69 71 73 74 76 77 78 79 80 80 81 81 82 82 82 82 82 81 81 81 81 81 82 81 82 82 82 82 82 82 83 83 84 85 85 85
10 11 12 14 15 16 18 19 21 21 22 23 24 25 25 26 26 27 27 27 27 26 26 25 25 24 24 24 24 25 25 26 26 27 28 29 31 33 35 37 39 40 42 44 46 47 49 51 54 56 58 60 63 65 67 69 71 73 75 76 78 79 80 81 82 82 82 82 82 82 83 83 83 84 84 83 83 84 84 84 84 84 85 85 85 86 86 86
19 17 15 13 10 9 7 6 5 5 5 6 7 7 8 8 9 9 9 9 8 8 9 9 9 8 9 11 11 12 12 13 14 16 17 18 20 22 24 26 27 27 29 30 32 33 35 36 39 41 44 47 50 53 56 59 61 63 66 69 72 74 76 77 78 79 80 81 81 82 83 83 84 84 85 85 86 86 87 87 88 88 88 88 88 88 88 88
35 33 30 28 26 24 22 20 19 17 16 14 13 13 12 11 11 11 11 10 9 8 9 9 10 10 9 8 6 6 8 10 10 12 12 13 15 16 17 19 19 20 20 21 22 23 24 26 27 29 31 33 36 39 42 46 48 51 54 57 61 64 67 70 72 73 75 77 78 79 81 82 83 84 85 86 87 88 89 90 90 90 90 90 90 90 90 90
43 42 40 38 37 35 33 31 30 28 27 27 26 25 25 25 25 25 25 24 21 19 18 16 15 13 11 9 9 12 12 8 7 8 7 7 8 8 10 11 12 13 14 14 15 15 16 17 19 20 22 23 25 27 30 33 35 38 41 44 47 50 54 57 61 63 66 69 71 74 76 78 80 82 83 85 86 87 88 89 90 90 91 91 91 91 91 92
51 50 48 47 46 45 43 42 41 40 39 38 38 38 38 38 38 38 38 37 35 32 29 26 25 24 23 21 23 24 18 11 13 16 17 16 15 14 15 13 9 10 11 10 11 12 12 12 13 13 14 16 17 18 19 22 24 26 29 31 34 37 40 43 46 49 53 56 60 63 66 70 72 75 77 79 81 83 84 85 87 88 89 89 90 91 91 92
60 59 57 56 56 55 54 53 51 51 50 49 48 47 47 47 46 46 45 45 44 42 41 39 38 37 36 34 34 33 26 23 27 29 29 30 30 29 28 24 21 20 19 19 19 18 15 13 13 13 14 14 14 14 15 15 16 18 19 21 23 25 28 31 33 36 39 42 45 49 53 57 60 63 67 69 72 75 77 79 81 83 84 86 87 88 90 91
64 63 62 61 60 59 58 57 56 55 54 53 52 51 51 50 49 48 47 47 45 44 43 43 42 40 39 38 38 35 32 33 34 34 33 34 34 33 32 31 31 32 31 30 29 26 24 23 22 21 21 20 20 20 18 17 16 16 16 17 18 19 20 22 24 27 29 31 34 37 40 43 46 49 53 56 60 63 66 69 71 74 77 79 81 83 85 87
66 65 64 63 63 62 61 60 59 58 57 57 56 55 55 54 52 51 50 49 47 46 45 44 43 41 40 40 38 36 36 36 36 35 34 34 34 33 32 33 33 33 33 32 31 31 31 30 30 30 30 30 29 28 26 25 24 22 21 20 19 18 18 19 20 21 23 25 27 29 31 33 36 38 41 44 47 50 53 56 59 62 65 68 70 73 76 78
65 65 64 63 62 61 60 60 59 59 58 58 57 57 56 55 54 53 51 50 49 48 47 47 45 44 43 42 40 40 40 40 39 38 38 37 36 35 35 35 34 33 32 31 31 31 31 31 31 29 30 30 28 27 27 27 27 27 26 25 24 24 23 22 22 22 22 23 24 25 27 28 30 31 34 36 38 40 43 45 47 50 53 55 58 61 63 66
63 62 61 60 59 58 58 57 57 57 56 56 55 54 54 53 52 52 51 50 50 50 49 49 48 47 47 45 44 44 44 44 43 42 42 40 39 39 39 38 37 36 35 34 34 32 31 32 30 28 29 28 24 24 24 24 24 23 23 23 24 24 24 24 25 25 25 25 25 26 26 27 28 30 31 32 33 35 36 38 40 42 44 46 48 50 52 55
61 60 59 58 57 56 55 54 54 53 53 52 52 52 51 51 50 50 50 50 50 50 50 50 49 49 48 46 46 45 45 46 45 44 44 43 43 43 42 42 42 41 40 39 38 36 35 35 33 32 31 29 28 27 26 25 25 23 23 23 23 23 22 23 23 23 23 24 24 25 26 27 28 29 30 31 33 34 35 36 37 38 39 40 41 43 45 47
57 57 57 56 56 55 54 53 52 51 50 50 49 49 49 49 49 49 49 49 49 49 49 49 48 48 47 46 46 46 46 47 45 44 44 44 44 44 43 43 43 43 43 42 41 40 39 39 37 35 34 34 33 32 31 30 29 28 28 27 27 26 26 25 25 24 23 23 23 23 23 23 24 26 27 29 31 33 34 35 36 37 38 39 39 40 42 43
54 53 54 54 53 53 52 51 50 49 49 48 48 48 48 49 49 48 48 48 48 48 49 48 48 47 47 47 47 47 47 46 45 45 45 45 45 44 44 44 44 44 44 44 43 42 42 40 38 37 38 38 37 36 35 35 35 34 32 31 30 29 29 28 28 27 27 27 27 26 26 25 25 26 26 27 28 30 31 33 34 36 38 39 40 41 42 43
50 50 50 51 51 51 50 49 48 48 47 47 47 47 48 48 47 47 47 47 47 48 48 48 48 48 48 48 48 47 47 47 47 47 47 47 47 46 46 46 46 46 46 46 46 45 44 42 42 44 44 43 42 42 41 40 40 39 37 36 34 33 31 30 29 28 28 28 28 29 29 29 29 30 31 31 31 31 32 32 34 35 36 38 39 40 42 44
47 47 47 47 47 47 47 47 46 45 45 45 45 46 46 45 45 45 45 45 46 47 47 47 47 48 48 48 48 48 49 49 49 49 50 50 49 49 49 49 49 49 49 49 49 49 48 49 51 52 50 49 49 49 48 47 46 44 43 42 40 38 37 35 34 33 31 30 30 31 31 30 31 32 33 35 35 36 36 36 37 37 38 39 40 41 41 42
44 44 44 44 44 44 44 45 44 43 43 43 43 43 43 43 43 43 43 44 45 44 44 45 46 46 47 47 49 49 49 49 49 50 50 50 50 50 50 50 50 51 51 51 52 52 53 54 54 53 52 53 54 53 53 52 51 50 49 49 48 47 45 43 41 41 40 38 37 36 35 33 33 34 35 37 38 39 40 40 41 41 42 42 43 44 44 44
40 40 40 40 40 41 41 42 42 41 40 40 40 40 40 41 41 41 41 42 41 41 42 43 44 45 45 46 47 48 47 48 49 49 49 49 50 50 50 51 51 51 51 52 52 53 54 54 52 53 55 56 56 56 56 55 55 55 55 54 54 54 54 52 50 50 49 47 45 44 41 40 38 38 38 39 40 41 43 44 44 45 45 46 47 47 48 48
37 37 37 37 38 38 38 39 40 39 38 37 37 38 38 39 39 39 39 39 39 41 42 42 42 43 44 45 45 45 46 47 48 48 48 49 50 50 50 51 52 52 53 54 54 54 54 53 54 56 57 57 57 57 57 57 57 57 58 58 58 58 59 59 58 57 56 54 52 51 49 47 45 43 43 42 42 43 44 46 47 48 49 50 50 51 51 51
34 35 35 35 35 35 36 36 36 37 36 35 35 35 36 36 37 37 37 38 39 40 39 39 40 40 41 43 43 44 45 46 46 46 47 48 49 50 51 51 52 53 54 54 54 54 54 55 56 57 57 57 57 57 57 58 58 59 59 59 60 61 61 61 61 62 61 59 57 55 54 52 51 49 48 47 46 46 46 47 48 49 51 52 53 54 55 55
33 33 33 33 33 33 33 33 34 34 34 33 33 33 33 34 34 35 35 36 37 37 37 38 38 39 39 40 41 42 42 43 43 44 46 47 48 49 50 51 52 53 53 52 52 52 53 55 56 57 57 58 58 59 59 60 60 60 61 62 63 64 64 64 64 64 63 61 60 58 57 56 55 54 53 52 50 49 49 50 50 51 52 53 55 56 57 58
31 31 31 31 31 31 31 31 31 31 31 31 31 31 31 31 32 33 33 33 34 35 35 36 36 37 38 39 40 40 41 42 43 43 44 45 46 47 48 49 50 50 50 51 52 52 53 55 56 57 58 59 60 61 62 62 62 63 64 64 65 66 67 67 67 66 66 64 62 61 60 58 58 57 56 55 54 54 53 53 53 53 53 54 55 56 57 58
29 29 29 29 28 28 28 29 29 29 30 30 30 30 30 30 31 32 32 32 33 33 34 34 35 36 37 38 39 40 40 41 42 42 43 44 45 45 46 47 48 48 50 51 52 52 53 54 56 57 59 61 62 63 64 64 64 65 65 66 66 67 68 69 69 68 67 66 64 62 61 60 60 59 59 59 58 58 57 57 57 57 57 57 57 58 59 60
28 28 28 27 27 26 27 27 27 28 28 29 29 29 29 29 30 30 31 32 32 32 32 33 34 35 37 38 38 39 40 40 41 43 43 44 44 45 45 46 47 48 50 51 51 52 53 55 57 58 59 62 64 65 65 66 66 67 67 67 67 68 69 70 70 68 67 66 65 64 62 62 62 62 62 61 62 61 62 62 62 62 62 63 63 63 63 63
27 27 27 26 26 26 26 26 27 27 28 29 29 29 29 29 28 29 30 31 31 31 32 33 33 35 36 37 37 38 39 41 42 43 44 44 45 45 46 46 47 49 50 51 52 53 54 56 58 59 60 62 64 65 66 67 67 67 67 67 67 67 69 70 70 69 68 67 66 65 64 64 64 64 64 64 65 65 65 65 66 66 67 67 68 68 67 67
25 26 26 26 26 26 26 27 28 29 29 29 29 29 29 28 27 28 28 29 30 30 31 32 33 34 35 36 37 38 39 40 41 43 44 44 46 47 47 47 49 49 50 51 52 53 55 58 59 60 60 62 64 65 66 67 67 68 67 67 67 68 69 71 71 71 69 68 67 67 66 66 66 67 67 67 67 67 67 67 67 67 68 68 68 68 69 70
23 24 25 26 26 27 28 29 29 30 30 30 30 30 28 27 26 27 28 28 29 30 30 31 33 34 34 36 37 37 38 39 40 42 44 45 46 47 47 48 49 49 50 51 53 56 58 59 61 62 62 63 64 66 67 67 67 67 67 66 67 68 70 72 72 72 71 70 69 69 69 69 69 70 69 69 69 69 69 68 68 68 67 67 67 68 69 70
22 23 24 25 27 28 28 29 29 30 30 30 30 29 28 27 27 27 28 28 28 30 30 32 33 34 34 35 36 37 38 39 40 42 44 45 46 47 47 48 48 49 50 53 56 58 60 61 62 62 62 63 65 66 67 68 67 67 67 66 67 69 71 72 73 73 73 72 72 72 72 72 72 72 72 72 71 70 70 69 69 69 68 69 69 70 71 72
21 22 23 24 25 26 26 27 29 30 30 30 29 29 28 27 28 28 29 29 29 30 31 33 33 34 35 35 36 37 38 39 41 42 44 45 46 47 47 47 48 49 51 55 57 59 60 61 62 62 63 64 65 66 67 68 68 68 67 67 68 70 72 73 74 75 75 75 75 75 75 75 75 75 74 74 73 72 71 71 71 71 71 72 72 72 73 75
20 22 22 22 23 24 24 25 28 30 30 29 27 28 27 27 28 28 29 30 31 31 32 33 34 35 36 37 37 38 39 40 41 42 43 44 45 45 46 47 49 50 53 56 58 60 60 61 62 63 64 65 65 66 67 68 69 69 69 69 70 71 72 73 75 76 76 76 76 76 77 76 76 76 75 75 74 74 74 73 74 74 74 75 75 76 76 77
18 22 23 23 23 24 24 25 28 29 28 27 26 26 26 27 28 28 29 30 31 32 32 33 35 36 37 38 38 39 40 42 43 44 45 46 46 46 47 49 51 53 55 57 59 59 60 61 63 65 66 66 66 66 67 68 69 71 71 71 71 71 72 73 75 77 78 78 78 78 78 77 77 76 75 75 75 75 75 75 75 75 76 76 76 77 77 78
18 21 23 24 25 25 25 26 27 27 26 25 24 25 26 26 27 28 29 30 31 32 32 33 35 36 37 38 39 41 42 43 44 46 47 47 47 47 48 49 51 53 55 57 59 60 61 62 65 66 67 67 66 67 67 68 70 71 72 71 72 72 73 74 76 78 80 80 80 79 78 77 76 75 75 75 75 75 75 75 75 75 75 75 75 76 77 77
19 20 21 22 24 25 26 26 27 25 24 24 23 24 26 26 27 28 29 29 30 31 32 33 35 36 38 39 40 41 42 44 45 46 46 47 47 47 48 49 50 52 55 56 58 60 62 64 66 66 67 67 67 67 68 68 70 72 73 73 74 75 76 78 79 81 82 82 81 79 78 77 75 74 74 73 73 73 74 74 74 74 74 74 74 74 75 75
18 17 15 17 22 25 26 26 25 25 24 24 24 25 26 27 27 28 29 29 30 31 33 34 35 36 38 39 40 41 42 43 45 46 46 46 47 48 49 50 51 53 55 56 58 61 63 65 66 66 67 68 68 69 69 70 72 74 75 76 76 77 79 81 83 84 84 83 82 78 76 75 74 73 72 72 72 72 73 74 74 73 73 73 72 72 71 71
13 14 15 18 23 25 25 26 25 25 25 25 25 26 27 27 28 28 29 30 31 32 33 34 35 36 37 38 40 41 42 43 44 45 46 46 47 48 49 50 52 54 56 58 60 62 65 66 66 67 68 69 70 70 71 73 74 76 77 77 78 80 81 83 85 86 85 82 80 77 74 73 73 71 71 71 71 72 73 73 73 72 71 70 69 68 66 65
15 18 21 24 25 25 26 26 26 26 25 26 27 27 27 28 28 29 30 31 32 33 34 35 36 36 37 39 40 41 42 43 44 45 46 46 47 48 49 52 53 55 57 60 62 63 65 67 68 69 70 71 71 72 74 76 77 77 78 79 80 82 84 85 87 86 83 80 78 76 73 72 71 70 70 70 71 72 73 73 72 71 69 68 65 63 60 58
21 23 25 26 26 26 27 27 27 26 26 26 28 27 27 28 29 30 31 31 33 33 34 35 37 38 39 40 41 42 43 44 45 46 46 47 48 49 51 53 55 57 59 61 63 64 66 68 70 71 72 72 73 74 76 78 79 79 80 81 83 84 86 89 89 86 81 77 74 74 73 72 71 71 71 71 71 72 73 72 71 70 67 64 61 59 56 53
23 24 25 26 26 27 27 27 27 27 27 27 28 27 28 29 29 30 31 32 33 34 36 38 39 40 41 41 42 43 44 44 45 46 47 48 49 50 52 55 57 59 61 63 65 66 67 69 71 72 73 73 74 75 77 79 81 81 82 84 85 86 88 90 89 84 79 75 73 72 72 72 72 71 71 72 72 72 72 72 70 67 64 60 57 54 52 49
23 23 24 25 26 26 26 26 26 26 26 27 27 27 28 29 29 30 32 33 34 36 38 40 41 41 41 42 43 43 44 45 46 47 49 50 51 53 55 57 59 61 63 65 67 68 70 71 73 73 74 75 75 77 79 81 81 82 82 84 85 87 89 90 88 82 76 75 75 73 72 73 72 72 72 73 73 72 71 70 67 63 60 56 53 50 48 46
22 22 23 24 25 25 25 25 25 24 25 25 26 27 28 28 29 30 32 34 36 38 39 40 41 42 42 43 43 44 45 47 48 50 52 53 55 56 58 60 62 64 65 67 69 71 72 73 74 75 76 77 77 79 81 81 81 81 82 83 84 86 88 89 86 80 76 77 78 76 74 74 73 73 73 73 72 71 69 67 64 60 56 52 49 46 45 43
22 22 23 23 24 24 24 24 23 23 24 24 25 26 28 28 30 31 33 35 37 39 40 41 42 44 44 45 46 46 48 49 51 53 56 57 59 61 63 64 65 66 67 68 70 72 74 74 75 77 78 78 79 81 82 81 81 82 82 83 84 85 87 88 85 81 80 81 81 79 77 75 74 73 73 72 71 70 68 65 61 57 52 49 47 45 44 44
22 23 24 24 24 24 24 23 22 22 23 23 24 26 28 29 31 33 34 36 37 38 40 41 43 45 46 47 47 49 50 52 55 57 59 61 62 63 65 65 66 67 68 70 72 74 75 75 76 78 79 80 81 83 83 82 82 82 83 85 85 85 87 89 87 84 85 84 82 81 80 77 75 74 73 72 71 70 68 65 59 55 52 50 48 47 46 45
24 25 25 25 24 23 23 22 22 22 22 23 24 27 28 30 31 32 34 36 38 39 40 42 44 46 47 48 49 50 52 54 57 59 60 62 62 63 65 66 67 69 70 72 74 75 76 75 76 77 79 80 81 82 82 82 83 83 85 86 87 87 88 90 89 87 88 87 84 82 82 80 77 76 75 73 71 70 69 65 60 56 54 52 51 50 49 48
26 26 25 25 24 22 21 21 21 22 23 24 25 26 28 29 30 31 33 35 37 39 40 42 44 46 47 49 50 51 54 56 58 60 61 62 63 64 66 67 68 70 72 74 76 77 78 78 77 78 79 80 80 81 82 83 84 86 87 88 88 88 89 90 90 89 89 89 85 82 82 82 80 78 76 73 71 70 69 66 61 58 56 55 54 53 51 49
28 26 24 24 23 22 21 21 22 22 23 24 25 26 28 29 30 31 33 35 37 39 40 42 44 47 49 51 52 54 56 58 59 61 62 63 65 66 67 68 70 72 74 76 78 80 81 82 81 80 81 82 81 82 84 85 87 89 89 90 90 90 90 91 91 90 90 89 86 83 81 81 81 78 76 73 71 69 69 66 62 59 57 55 54 52 51 50
28 26 24 23 23 23 23 24 24 23 24 25 26 27 28 30 31 33 34 36 38 40 42 43 45 48 50 52 54 55 57 59 60 62 63 65 66 68 68 69 71 72 75 77 79 81 83 84 84 82 83 83 83 85 87 88 90 91 92 92 92 91 92 93 92 91 91 88 85 83 81 81 80 78 75 72 69 68 68 65 60 57 55 54 53 53 53 53
29 27 25 24 24 24 26 27 27 27 27 29 29 30 30 32 34 35 36 38 41 43 44 45 47 49 51 53 54 55 57 59 61 63 64 66 67 69 70 71 71 73 75 78 80 82 84 85 86 84 83 84 85 87 89 90 92 93 93 94 93 92 93 93 92 92 91 88 86 84 83 81 80 78 75 72 68 67 65 62 58 56 55 55 56 56 57 56
31 30 28 27 27 27 28 29 29 31 32 33 34 33 34 35 36 37 39 40 43 44 45 46 47 49 50 52 54 55 56 59 62 63 65 66 68 70 71 71 72 74 76 79 81 82 84 85 86 85 84 85 87 89 91 92 94 94 95 95 94 94 94 94 93 92 91 88 86 85 84 82 81 79 76 73 69 66 64 62 59 58 58 58 59 59 58 58
34 33 31 30 30 30 31 31 32 34 35 36 36 37 37 38 39 40 40 42 43 44 45 46 47 48 49 51 53 54 57 59 62 63 65 66 68 70 72 72 73 75 77 79 81 82 83 84 85 84 85 86 89 91 93 94 95 95 96 96 95 94 96 95 94 93 91 88 86 86 85 84 82 80 78 74 70 66 64 63 60 59 60 60 60 59 58 57
37 36 35 33 33 34 34 34 35 36 37 38 38 39 39 40 41 41 41 42 43 44 45 46 47 48 50 51 53 55 57 59 61 63 65 66 68 70 72 73 74 75 78 79 81 82 83 83 83 83 84 87 90 92 94 95 96 96 96 95 94 95 97 96 94 93 90 88 87 87 86 85 82 80 79 77 73 68 64 63 60 59 59 59 59 58 57 56
38 38 37 36 36 37 37 37 37 37 38 38 39 39 40 40 41 41 41 42 44 45 46 47 48 50 51 52 53 55 57 59 61 63 65 67 69 71 73 73 74 76 77 79 81 82 82 82 82 83 85 87 90 93 94 96 97 97 96 95 93 95 98 97 94 93 90 88 87 87 87 85 83 80 78 77 75 70 65 63 61 58 57 57 57 57 56 56
Wind_Direction
234 236 237 239 241 243 245 247 249 252 254 257 259 261 263 265 267 268 269 270 270 271 273 275 276 276 276 276 276 275 274 273 272 270 269 268 267 266 266 265 264 263 263 263 263 263 264 264 264 264 264 264 264 263 263 263 264 263 263 263 263 263 263 264 264 264 264 264 264 264 264 264 264 263 263 263 263 263 263 264 264 264 265 265 266 266 266 266
226 229 233 235 239 242 245 247 250 253 255 258 260 262 264 265 267 268 269 270 271 272 273 274 275 276 276 276 276 276 276 276 276 276 274 273 272 272 271 270 269 268 268 268 267 266 266 265 265 265 264 264 264 263 263 263 263 263 263 263 263 263 263 263 263 264 264 264 264 264 264 263 263 262 262 262 262 262 262 263 263 264 264 264 265 265 265 266
183 197 208 218 227 233 239 244 248 251 255 257 260 262 264 265 267 269 270 271 271 272 273 275 275 277 278 279 280 281 281 280 281 282 281 281 280 279 279 278 277 275 274 274 273 271 270 269 267 266 265 264 263 263 262 262 261 261 261 261 261 261 261 261 262 262 263 263 263 263 263 262 262 262 262 262 261 261 261 262 262 263 263 263 263 264 264 264
108 114 118 124 132 140 149 162 182 200 219 234 245 253 259 264 269 272 274 276 279 282 286 286 289 302 313 314 309 301 300 300 300 303 302 300 296 293 291 290 288 286 284 283 282 281 278 276 273 271 268 267 265 264 263 262 262 261 260 260 260 259 259 260 260 260 261 261 261 261 262 262 262 262 262 261 261 261 261 262 262 263 263 263 263 262 262 262
91 93 94 94 95 95 94 94 94 94 93 93 92 90 88 84 79 74 69 65 61 55 52 48 42 37 28 12 2 6 5 351 338 336 332 324 317 309 306 303 302 301 299 297 294 292 289 286 284 281 278 275 272 270 268 267 266 265 264 262 262 261 261 261 261 261 261 261 261 261 261 261 261 261 261 261 261 261 262 262 262 262 262 262 262 262 261 261
89 90 90 91 91 92 92 92 93 93 93 92 91 89 87 84 80 77 75 73 72 71 71 68 66 68 65 57 56 53 41 24 15 21 16 2 345 330 329 327 320 321 321 316 311 308 305 301 298 295 292 290 287 283 280 277 275 272 270 269 267 266 265 265 264 264 264 263 263 263 262 262 262 262 262 262 262 262 262 262 263 262 262 262 262 261 261 261
86 87 87 87 87 87 86 85 84 83 83 81 80 78 76 74 72 71 70 70 70 71 72 71 69 69 66 63 62 60 60 67 63 57 54 50 46 40 33 26 13 8 3 354 355 353 343 336 333 331 327 324 317 310 303 296 291 286 282 279 276 273 272 270 269 269 268 267 266 266 265 265 264 264 264 264 264 264 264 264 264 264 263 263 263 262 262 262
80 80 80 80 80 79 78 78 77 76 76 75 75 74 73 72 72 71 71 71 71 70 70 69 68 66 65 64 64 63 64 66 62 58 55 53 51 49 46 44 43 39 34 32 33 31 26 21 19 15 9 5 358 351 340 329 322 315 308 301 295 289 284 281 278 276 275 273 272 271 270 269 268 267 267 266 266 266 265 265 265 265 265 265 265 264 264 264
79 79 79 79 79 79 78 78 78 78 77 77 76 76 75 74 74 73 73 72 72 71 71 70 69 68 67 66 64 64 65 63 60 58 56 55 53 51 50 49 48 46 43 43 42 43 43 41 40 36 31 30 25 18 13 6 359 352 345 337 327 318 310 303 297 293 289 285 282 280 278 276 274 273 272 271 270 269 268 268 268 267 267 267 266 266 266 266
78 78 78 78 78 77 77 77 77 78 77 77 76 76 75 74 73 72 71 70 69 68 67 66 66 65 64 63 61 60 60 58 55 54 52 52 50 49 49 48 48 47 46 46 46 46 46 44 43 39 36 35 28 24 23 19 16 12 7 1 354 348 340 332 324 316 310 304 299 294 291 287 284 282 280 278 276 275 274 273 272 271 270 270 269 269 268 268
77 77 77 76 77 77 77 77 77 77 77 77 77 76 75 74 72 71 69 68 66 65 65 64 63 62 61 59 58 58 57 55 53 51 49 49 47 45 45 44 43 42 42 42 42 42 42 42 41 40 39 37 32 29 28 25 24 20 15 12 8 4 359 353 346 339 332 325 318 311 306 301 298 295 291 288 286 284 282 280 278 277 276 275 274 273 272 271
76 76 76 76 76 76 76 77 77 77 77 77 77 76 75 74 73 71 70 69 68 67 66 65 64 63 62 61 59 59 59 58 56 54 52 51 49 47 46 44 43 41 39 39 37 36 36 36 34 33 34 30 26 26 24 23 24 21 18 17 14 10 6 3 359 354 349 342 335 328 322 316 312 308 304 301 297 294 292 290 287 285 283 282 280 279 277 276
75 75 75 75 75 75 75 76 76 77 77 77 77 76 76 75 74 72 71 70 69 68 67 66 65 64 63 62 61 61 61 59 58 56 54 53 51 50 49 48 46 44 42 41 39 37 37 36 33 31 30 25 21 20 16 14 13 10 9 8 6 4 2 1 359 356 353 348 344 339 333 328 323 319 315 311 308 304 301 299 296 294 292 291 289 287 285 283
73 73 73 73 72 72 73 73 74 75 76 76 76 76 75 74 73 72 70 69 67 66 65 63 62 61 60 59 58 57 56 55 54 53 52 51 50 49 48 47 46 45 44 42 41 39 38 37 35 34 32 29 26 23 20 17 14 10 6 3 360 356 354 351 348 345 343 341 339 335 332 329 326 323 320 317 314 312 309 306 304 301 300 298 297 295 294 292
72 72 71 71 71 70 70 71 71 72 73 74 74 73 72 70 69 68 66 65 63 61 60 58 56 55 54 53 52 51 51 51 50 49 48 47 46 45 45 44 43 42 41 39 38 37 36 35 33 33 32 29 27 25 22 21 18 15 11 8 4 359 356 350 345 340 336 333 330 326 324 323 320 317 315 313 312 311 310 309 307 305 304 302 301 300 299 297
70 70 69 69 69 69 69 69 69 70 71 71 71 70 68 66 65 64 63 61 59 57 56 54 52 51 49 49 48 48 47 47 46 45 44 43 42 42 41 39 38 37 36 34 33 32 31 30 29 29 27 24 22 21 19 18 17 15 13 10 7 4 0 356 350 344 338 333 328 323 321 319 317 314 312 310 308 306 305 304 304 303 302 301 300 300 299 298
68 68 67 67 67 67 67 67 67 68 69 69 69 67 65 63 62 60 59 58 56 54 52 51 49 47 46 45 45 44 43 42 42 41 40 39 38 37 37 36 34 33 32 30 29 28 26 25 25 24 21 19 18 17 16 15 13 12 11 9 7 5 2 359 356 351 345 341 336 329 323 319 316 314 312 310 308 306 304 302 301 300 299 298 297 296 295 295
66 66 66 65 64 64 64 64 64 65 67 68 67 64 62 60 58 57 55 54 53 51 50 48 46 44 43 42 41 40 39 39 38 38 37 36 35 34 34 32 31 30 29 27 26 25 24 24 23 20 18 17 16 15 14 12 11 10 9 7 6 4 2 359 357 355 351 347 343 338 331 325 321 317 314 311 309 306 304 303 301 299 298 297 296 295 294 293
65 64 63 63 62 61 61 60 61 62 64 65 63 61 58 57 55 54 53 52 51 49 48 46 43 42 40 39 38 37 36 35 35 34 34 33 33 31 30 29 29 28 27 26 25 24 23 23 20 18 17 16 15 14 13 11 10 9 8 7 5 3 2 359 356 355 353 349 346 342 337 332 328 324 321 317 313 310 307 305 302 300 299 298 297 296 295 294
63 62 61 60 59 58 57 57 57 59 61 61 59 56 54 53 52 51 50 49 48 46 45 43 41 39 37 36 35 34 33 32 32 31 31 31 30 29 28 27 26 25 25 25 24 23 23 21 19 19 18 16 14 13 12 11 9 8 6 5 4 2 1 359 356 354 352 349 346 343 340 336 333 330 327 323 320 316 312 308 305 303 301 299 298 297 296 295
62 61 60 59 58 56 54 54 53 55 56 56 55 53 51 49 48 47 46 45 44 43 42 41 39 37 35 34 32 31 30 29 29 29 29 29 29 28 27 26 25 24 24 24 23 23 22 21 20 18 16 14 13 12 10 9 8 6 5 3 2 1 359 358 355 353 352 349 346 343 340 338 335 332 330 327 324 321 317 313 309 306 304 302 300 298 297 297
59 58 57 56 55 54 52 51 50 50 51 51 51 49 48 46 45 44 43 41 41 40 39 38 37 35 34 32 31 30 29 28 28 28 29 29 28 27 26 26 25 25 24 23 22 21 20 19 17 15 14 12 11 9 8 7 6 4 3 1 360 358 357 356 354 352 350 348 345 343 340 338 335 333 331 329 326 323 319 316 313 310 308 305 303 301 300 299
54 53 52 51 51 51 50 48 47 46 46 46 46 45 44 43 41 40 39 39 38 38 37 36 34 33 32 31 30 29 28 28 28 28 28 29 28 27 26 25 25 23 22 21 19 18 17 16 14 13 12 11 9 8 6 5 4 3 2 1 359 357 355 354 352 350 349 347 345 342 340 337 335 332 330 328 326 323 320 318 315 313 311 308 307 305 304 303
47 46 45 45 45 46 46 44 43 41 40 40 39 39 39 38 37 36 36 36 35 35 34 34 32 30 29 29 29 27 27 27 26 26 26 27 26 25 25 24 22 20 18 18 17 15 14 13 12 12 11 10 9 8 6 5 4 3 2 0 358 356 354 353 351 349 347 345 344 341 339 336 334 331 329 328 326 323 321 319 317 315 314 312 311 309 307 306
41 40 39 38 39 39 39 38 36 34 34 34 34 33 32 32 32 31 31 31 31 31 31 31 29 28 28 28 27 26 26 25 24 24 23 23 22 22 22 21 18 17 15 14 13 12 12 11 11 11 10 9 8 6 5 4 3 2 1 359 357 355 353 352 350 348 346 344 341 339 337 335 333 330 329 327 325 323 322 320 319 318 316 315 313 312 310 308
36 34 33 32 31 31 31 30 28 26 26 27 29 29 27 27 27 27 27 27 27 27 27 28 27 26 26 25 25 24 23 22 22 21 20 19 19 19 19 17 15 14 13 12 12 11 11 11 10 9 8 7 5 3 2 1 0 360 359 358 356 353 352 350 349 347 345 342 340 338 336 334 331 329 328 326 324 323 322 320 319 317 316 315 314 312 311 309
32 30 28 26 24 23 23 21 19 18 18 20 22 24 24 24 25 26 26 25 25 25 24 25 25 24 24 23 23 22 21 20 19 18 17 17 17 17 16 15 14 13 12 11 11 11 10 10 8 7 6 4 2 1 360 359 358 357 357 356 354 352 350 349 347 345 344 341 338 336 334 332 330 328 327 325 323 322 320 319 317 316 314 314 312 311 310 308
32 28 25 23 19 18 17 15 15 14 14 15 18 20 22 23 25 26 26 25 25 25 24 24 23 22 21 20 20 20 18 17 17 16 16 16 15 15 14 13 13 12 12 11 10 9 7 6 5 4 3 2 0 359 358 357 356 355 355 355 353 351 349 347 345 344 342 340 338 335 333 331 329 327 325 324 322 321 320 318 317 316 315 314 312 311 309 307
30 27 23 21 18 16 16 14 13 13 13 14 17 19 21 23 25 26 27 27 26 25 24 22 21 20 19 18 18 16 16 15 14 14 14 13 13 13 13 13 12 11 10 9 7 5 3 3 2 2 1 360 359 357 356 355 355 354 354 354 353 350 348 346 343 342 341 339 337 335 333 331 328 326 325 323 322 321 320 319 318 317 316 314 312 311 308 305
26 22 20 18 16 14 14 13 10 10 11 13 16 18 19 22 23 26 27 26 25 22 20 19 18 17 17 16 15 14 14 13 12 12 11 11 11 11 12 11 11 9 7 5 3 1 1 0 0 0 360 359 357 356 355 354 354 354 354 354 352 350 347 345 342 341 340 338 336 334 332 329 327 326 325 324 323 323 322 321 319 318 316 314 312 310 307 304
19 14 12 12 10 7 9 10 7 7 8 9 12 14 16 18 20 22 23 21 20 18 16 15 15 14 13 12 12 12 12 10 10 10 9 9 9 10 10 9 8 6 3 1 0 360 359 358 359 359 359 358 356 355 354 353 353 353 353 353 351 349 347 344 342 340 338 337 335 333 331 329 327 326 325 325 324 323 322 320 318 317 315 313 311 309 306 303
10 6 3 2 360 358 1 5 5 5 6 6 7 10 12 14 15 16 16 16 15 14 13 12 12 11 10 9 8 8 7 7 6 6 6 7 7 7 7 6 5 3 0 359 358 358 357 358 358 358 357 357 356 354 353 352 352 353 353 352 350 348 346 343 341 339 337 335 333 332 330 328 327 326 326 325 324 323 321 319 317 315 314 312 310 307 305 302
356 356 355 353 350 352 358 1 2 4 5 4 4 6 7 9 10 10 11 11 11 11 10 10 9 7 6 6 5 4 4 3 4 4 5 5 5 4 4 4 3 1 358 357 356 356 356 357 358 357 356 356 355 353 352 350 351 352 351 350 349 347 345 343 341 339 336 334 332 331 329 328 327 327 326 324 323 321 319 317 316 314 313 311 308 306 303 301
347 348 348 342 340 349 358 359 359 1 2 2 2 3 3 4 5 6 7 7 7 8 8 7 5 4 3 3 2 2 2 2 2 3 4 4 3 2 1 1 1 359 357 356 356 356 356 357 357 356 355 355 354 352 350 349 349 350 349 348 348 347 346 344 341 338 336 333 331 330 329 328 327 326 325 323 321 320 318 317 316 314 313 311 308 306 303 301
344 342 340 329 333 348 356 354 354 355 357 358 358 358 359 359 0 2 3 3 4 4 4 4 3 2 1 1 1 1 1 1 1 1 2 2 1 360 359 358 359 358 357 356 356 355 355 355 355 354 354 354 353 351 349 348 348 348 348 347 347 347 346 343 341 338 335 333 331 330 329 327 326 326 324 323 321 319 318 317 316 315 313 311 309 306 304 302
331 330 332 330 338 347 349 348 349 349 350 351 352 352 353 354 356 358 359 0 1 1 1 2 2 1 0 360 360 360 359 359 359 359 359 359 359 358 357 357 358 358 357 356 355 354 354 354 353 353 353 353 352 350 348 348 348 347 347 346 346 346 345 343 340 337 335 332 330 329 329 327 327 326 325 323 322 320 319 318 318 316 315 313 311 308 306 305
317 326 331 332 336 340 341 342 343 343 343 345 346 347 348 350 353 355 356 357 359 359 360 0 0 360 359 358 357 357 357 357 356 357 357 357 357 356 356 356 357 356 356 355 354 354 353 353 352 352 352 352 352 349 348 347 347 346 346 346 345 345 344 342 339 336 333 331 329 328 328 328 328 327 326 324 323 322 321 320 320 319 318 317 315 313 311 310
315 322 324 325 327 331 334 335 336 337 338 339 341 342 344 348 350 352 354 356 357 358 358 358 358 357 356 356 356 356 356 355 354 355 355 355 355 355 355 356 356 355 355 354 353 353 352 351 350 350 350 351 351 349 347 346 346 345 345 345 345 345 344 341 337 335 333 331 329 329 330 330 330 329 327 326 325 324 324 324 324 324 323 321 319 318 316 315
313 315 316 318 321 324 328 329 331 334 336 335 336 337 341 345 348 351 353 355 356 356 356 356 355 355 355 355 356 356 356 355 355 354 355 355 355 355 355 355 354 354 353 352 351 351 350 350 349 349 349 350 350 348 346 346 345 344 344 344 344 344 344 340 336 334 333 331 331 332 332 332 332 331 330 329 328 328 328 329 329 328 326 324 322 321 321 320
309 310 313 316 318 320 323 324 327 332 335 335 334 335 339 344 347 350 352 353 354 354 354 354 355 355 356 356 357 357 357 356 355 355 354 354 354 353 353 353 353 352 351 350 349 349 349 349 349 348 349 349 349 347 346 345 344 344 344 344 343 344 342 338 335 335 334 334 334 335 335 335 334 334 333 332 332 332 333 333 332 330 328 326 326 326 325 324
304 308 313 316 318 319 319 320 323 328 332 333 334 335 339 344 347 350 351 352 352 353 354 356 357 357 357 357 357 356 356 355 355 354 353 353 352 352 351 351 350 349 348 348 348 347 347 348 348 348 349 349 348 346 345 344 343 343 343 343 343 344 341 337 336 336 337 338 338 337 338 338 337 336 335 335 335 335 336 336 334 332 330 329 329 328 327 326
300 305 309 314 317 317 317 318 320 323 328 331 333 336 340 344 346 348 349 350 352 353 355 356 356 356 355 355 354 353 353 352 352 351 350 350 349 348 348 348 347 347 347 347 347 347 347 348 348 348 348 348 347 345 344 343 342 342 343 343 344 344 341 337 338 339 340 341 340 338 339 340 339 338 337 337 337 338 338 338 336 334 333 332 332 331 331 330
296 300 304 309 312 314 315 316 319 323 326 329 331 334 339 341 343 345 347 349 350 352 352 352 352 352 352 351 350 350 349 349 348 347 347 347 347 346 346 346 346 346 346 346 346 346 346 347 347 347 347 347 346 344 342 341 341 342 343 343 344 343 341 339 340 342 342 342 341 340 340 340 340 340 339 340 340 340 340 340 338 336 335 335 335 335 335 335
292 295 299 303 307 310 311 313 317 322 325 327 329 333 336 338 340 343 344 346 347 348 348 348 348 348 348 348 348 347 346 345 345 345 345 345 345 344 344 344 345 345 345 345 345 345 345 346 346 346 346 346 344 342 340 340 340 342 343 343 344 343 342 341 341 342 342 342 342 341 341 341 342 342 342 343 343 342 342 341 340 338 338 339 340 340 339 338
291 293 295 299 303 305 306 308 312 316 320 324 327 330 332 334 336 338 339 341 343 343 344 344 344 344 345 344 344 343 343 343 342 342 342 343 343 343 343 343 343 344 343 344 343 343 344 344 345 345 344 344 342 340 339 339 340 342 343 343 343 343 342 341 341 342 342 342 341 342 342 342 343 343 344 345 346 344 343 342 341 341 342 343 343 342 340 339
288 290 293 296 297 299 300 302 306 309 314 319 322 324 326 327 330 332 333 336 338 339 340 341 341 341 341 341 340 340 340 340 340 340 341 341 341 341 341 341 342 342 342 343 343 343 343 343 344 344 343 342 341 339 339 340 341 343 343 343 343 342 342 342 341 342 342 342 341 342 344 344 343 344 345 347 347 345 343 343 343 343 344 343 342 341 339 339
284 286 288 289 290 293 295 297 300 303 307 312 316 319 320 322 325 327 329 331 334 336 337 337 337 338 338 339 338 339 339 338 339 339 339 339 339 339 339 339 340 341 341 342 342 342 342 342 342 343 342 341 340 339 339 341 342 343 343 343 342 342 342 342 341 341 342 342 341 342 344 345 344 344 345 347 347 346 343 343 343 342 343 343 342 342 342 342
280 281 282 284 286 289 291 294 298 300 304 309 314 317 318 319 322 324 325 328 331 332 334 334 334 335 336 337 337 337 337 337 337 337 337 338 338 338 338 337 338 339 340 341 341 341 341 341 341 341 341 339 339 339 340 341 342 343 342 342 342 341 342 342 341 341 342 342 341 342 344 345 344 344 345 346 347 346 343 342 341 341 343 344 345 346 345 344
278 278 279 283 286 288 290 294 297 300 303 308 313 315 316 318 320 321 322 325 327 329 330 331 332 333 334 334 334 335 335 335 335 336 336 337 337 336 336 336 337 339 339 339 340 340 340 340 340 339 339 338 338 339 340 341 342 343 342 342 342 340 341 342 341 341 342 341 341 342 344 345 345 344 345 346 347 346 344 342 342 344 346 347 347 347 345 344
277 278 281 284 287 289 292 295 298 299 301 306 310 312 313 315 317 318 319 321 324 325 327 328 329 330 332 332 332 332 332 333 333 334 335 335 335 335 335 336 337 337 338 338 339 339 339 339 339 338 338 337 337 339 340 340 342 342 341 342 341 339 340 342 341 341 341 341 341 342 343 345 345 344 344 344 346 347 345 343 344 345 347 347 347 346 344 343
278 280 284 287 289 291 292 294 296 297 299 304 307 309 311 313 314 316 317 319 321 323 325 326 327 328 329 329 329 330 331 332 332 333 334 334 334 333 334 334 335 336 337 337 337 337 338 338 338 338 337 337 337 339 339 339 341 341 341 341 340 339 340 341 341 340 341 341 341 342 343 344 344 344 343 343 344 346 346 344 344 346 347 346 345 344 343 342
280 283 286 289 291 292 293 293 295 296 300 303 306 308 310 311 313 314 316 317 319 320 322 323 324 326 326 327 329 330 330 331 331 331 332 332 332 332 332 333 334 334 335 336 336 336 336 337 337 337 336 336 337 338 338 339 340 341 340 340 340 339 339 340 340 340 340 341 341 342 342 343 344 343 343 342 342 345 346 345 344 346 346 344 343 343 343 342
Height
10699 10701 10703 10705 10707 10709 10711 10712 10713 10714 10715 10716 10716 10716 10717 10717 10717 10717 10717 10717 10718 10718 10718 10718 10718 10719 10719 10719 10719 10718 10718 10718 10718 10718 10718 10717 10716 10715 10714 10714 10716 10716 10716 10717 10717 10717 10717 10717 10717 10717 10717 10718 10717 10717 10716 10715 10715 10716 10716 10715 10715 10714 10714 10714 10714 10713 10713 10714 10714 10714 10715 10715 10715 10715 10715 10714 10714 10714 10713 10714 10714 10714 10714 10712 10710 10709 10709 10709
10698 10700 10702 10704 10706 10707 10709 10710 10711 10712 10713 10713 10714 10714 10715 10715 10715 10715 10715 10715 10715 10715 10715 10715 10715 10715 10715 10715 10715 10715 10715 10715 10714 10714 10713 10712 10711 10710 10709 10709 10709 10710 10710 10710 10710 10710 10710 10710 10710 10710 10710 10710 10710 10709 10708 10708 10709 10709 10708 10708 10707 10707 10706 10706 10705 10705 10705 10706 10706 10706 10706 10707 10706 10706 10706 10706 10706 10705 10705 10705 10704 10705 10705 10704 10703 10701 10701 10700
10697 10699 10701 10702 10704 10706 10707 10708 10709 10710 10711 10712 10712 10713 10713 10713 10713 10713 10713 10713 10713 10713 10713 10713 10713 10713 10713 10713 10712 10712 10712 10712 10711 10711 10710 10709 10708 10706 10705 10705 10704 10704 10704 10703 10703 10702 10702 10703 10703 10703 10703 10703 10702 10701 10701 10701 10701 10701 10701 10700 10699 10699 10698 10697 10697 10697 10697 10698 10698 10697 10697 10697 10696 10696 10697 10698 10698 10697 10696 10695 10695 10695 10695 10695 10694 10693 10693 10691
10698 10700 10701 10703 10704 10706 10707 10708 10709 10710 10711 10712 10712 10713 10713 10713 10713 10712 10712 10712 10712 10711 10711 10712 10712 10712 10712 10711 10711 10711 10711 10711 10710 10709 10708 10707 10706 10704 10703 10702 10701 10700 10699 10698 10697 10697 10696 10696 10696 10696 10696 10696 10695 10695 10694 10693 10693 10693 10694 10693 10692 10691 10690 10690 10690 10689 10689 10689 10688 10688 10688 10688 10688 10688 10688 10688 10688 10687 10686 10686 10685 10685 10685 10685 10685 10684 10683 10682
10701 10702 10703 10705 10706 10707 10709 10710 10711 10711 10712 10713 10713 10713 10714 10714 10713 10713 10712 10712 10711 10711 10712 10712 10712 10712 10712 10712 10711 10711 10711 10711 10710 10709 10708 10706 10705 10703 10702 10700 10699 10698 10696 10695 10694 10693 10692 10692 10691 10691 10691 10691 10690 10689 10688 10687 10687 10687 10687 10687 10686 10685 10684 10683 10683 10682 10681 10681 10680 10680 10680 10680 10679 10679 10679 10678 10678 10677 10677 10676 10675 10675 10675 10674 10674 10674 10673 10673
10705 10706 10707 10708 10709 10710 10712 10712 10713 10714 10714 10715 10715 10715 10715 10715 10715 10714 10714 10713 10713 10713 10713 10714 10714 10714 10714 10713 10711 10711 10712 10712 10711 10709 10708 10706 10705 10703 10702 10700 10698 10696 10695 10693 10692 10691 10690 10689 10689 10689 10688 10687 10687 10686 10685 10683 10683 10682 10681 10681 10681 10680 10679 10678 10677 10676 10675 10674 10674 10673 10672 10672 10671 10671 10670 10670 10669 10668 10667 10667 10666 10665 10665 10664 10664 10663 10663 10663
10709 10710 10711 10712 10712 10713 10714 10714 10715 10715 10715 10716 10716 10716 10716 10716 10716 10716 10715 10715 10715 10715 10715 10715 10715 10715 10714 10712 10711 10712 10713 10712 10710 10709 10708 10706 10704 10703 10702 10700 10698 10696 10694 10692 10690 10689 10688 10688 10687 10686 10686 10685 10684 10683 10682 10681 10679 10678 10678 10677 10676 10675 10675 10673 10672 10671 10670 10669 10668 10667 10666 10665 10664 10664 10663 10662 10661 10660 10659 10658 10657 10656 10655 10655 10654 10654 10653 10653
10712 10713 10713 10714 10715 10715 10715 10716 10716 10717 10717 10717 10718 10718 10718 10718 10718 10718 10718 10718 10718 10718 10717 10717 10716 10716 10715 10713 10713 10715 10714 10712 10710 10709 10708 10706 10704 10703 10703 10700 10697 10695 10694 10691 10690 10688 10687 10686 10685 10684 10684 10683 10681 10680 10679 10678 10677 10676 10675 10674 10673 10672 10671 10670 10668 10667 10666 10664 10663 10662 10660 10659 10658 10657 10656 10655 10654 10653 10652 10650 10649 10648 10647 10646 10645 10645 10644 10643
10717 10717 10718 10718 10718 10719 10719 10719 10720 10720 10720 10721 10721 10721 10721 10722 10722 10722 10721 10721 10721 10720 10720 10719 10718 10717 10716 10715 10716 10717 10714 10712 10711 10710 10709 10707 10705 10704 10703 10700 10697 10696 10694 10692 10691 10689 10687 10685 10684 10683 10682 10680 10679 10678 10677 10675 10674 10673 10672 10671 10670 10669 10668 10666 10665 10664 10662 10661 10659 10657 10656 10654 10653 10652 10650 10648 10647 10646 10645 10643 10642 10640 10639 10638 10637 10636 10635 10634
10722 10722 10722 10723 10723 10723 10723 10723 10723 10723 10723 10724 10724 10724 10724 10724 10724 10724 10724 10723 10723 10722 10721 10720 10719 10719 10718 10717 10718 10717 10714 10713 10712 10711 10709 10707 10706 10705 10703 10700 10699 10697 10696 10695 10693 10690 10688 10686 10684 10683 10682 10679 10679 10678 10676 10674 10672 10671 10669 10668 10667 10666 10665 10663 10662 10661 10659 10657 10656 10654 10652 10650 10649 10647 10645 10643 10642 10640 10639 10637 10635 10634 10632 10631 10629 10628 10627 10625
10727 10727 10727 10727 10727 10727 10727 10727 10727 10727 10727 10727 10727 10727 10727 10727 10727 10727 10726 10726 10725 10724 10723 10722 10721 10721 10719 10719 10719 10716 10715 10714 10713 10712 10710 10708 10707 10705 10702 10701 10699 10698 10697 10695 10693 10691 10689 10687 10686 10685 10683 10681 10682 10680 10677 10675 10673 10671 10670 10668 10666 10664 10662 10661 10659 10658 10656 10654 10653 10651 10649 10647 10645 10643 10641 10639 10637 10635 10633 10632 10630 10628 10626 10624 10622 10621 10619 10617
10732 10732 10732 10732 10732 10732 10732 10732 10731 10731 10731 10731 10730 10730 10730 10730 10730 10729 10729 10728 10727 10726 10725 10725 10724 10723 10722 10722 10720 10718 10718 10716 10715 10713 10712 10710 10709 10706 10704 10702 10701 10699 10697 10695 10693 10692 10690 10688 10687 10685 10683 10682 10682 10680 10678 10676 10674 10673 10671 10669 10667 10665 10662 10660 10658 10656 10654 10652 10650 10648 10646 10644 10642 10640 10637 10635 10633 10631 10629 10627 10625 10623 10621 10619 10617 10614 10613 10611
10737 10737 10737 10737 10737 10736 10736 10736 10735 10735 10735 10734 10734 10734 10733 10733 10732 10732 10732 10731 10730 10729 10728 10728 10727 10726 10725 10724 10723 10722 10720 10717 10716 10715 10714 10712 10709 10707 10706 10704 10702 10701 10698 10696 10695 10693 10690 10688 10687 10684 10683 10682 10680 10678 10677 10675 10673 10672 10670 10667 10666 10664 10662 10660 10658 10656 10654 10651 10649 10646 10644 10642 10639 10637 10634 10632 10629 10627 10625 10622 10620 10618 10616 10613 10611 10609 10607 10605
10742 10741 10741 10741 10741 10740 10740 10740 10739 10739 10738 10738 10737 10737 10736 10736 10735 10735 10734 10734 10733 10732 10731 10730 10729 10728 10728 10727 10725 10723 10720 10718 10718 10717 10716 10713 10711 10710 10708 10706 10704 10702 10700 10698 10696 10694 10691 10689 10687 10686 10684 10682 10680 10679 10677 10675 10672 10670 10668 10666 10664 10662 10660 10657 10656 10654 10652 10650 10648 10645 10643 10640 10638 10635 10632 10630 10627 10624 10621 10619 10616 10614 10611 10609 10606 10604 10601 10599
10746 10746 10745 10745 10744 10744 10744 10743 10743 10743 10742 10741 10741 10740 10740 10739 10738 10738 10737 10736 10735 10734 10732 10732 10731 10730 10729 10727 10725 10723 10722 10722 10721 10718 10716 10714 10712 10711 10709 10707 10704 10702 10700 10699 10697 10694 10692 10690 10690 10687 10684 10682 10681 10679 10676 10674 10672 10669 10667 10664 10662 10660 10658 10656 10654 10651 10649 10647 10645 10642 10640 10638 10635 10632 10630 10627 10624 10622 10619 10616 10613 10610 10607 10605 10602 10599 10596 10593
10750 10750 10749 10749 10748 10748 10747 10747 10746 10746 10746 10745 10744 10743 10742 10741 10741 10740 10739 10738 10736 10735 10733 10732 10731 10730 10729 10727 10726 10726 10724 10723 10720 10718 10717 10715 10713 10711 10709 10706 10704 10702 10701 10699 10697 10694 10693 10692 10688 10684 10682 10681 10679 10676 10674 10671 10669 10667 10665 10663 10661 10658 10656 10654 10652 10649 10647 10644 10641 10639 10636 10634 10632 10629 10626 10623 10620 10617 10615 10612 10609 10606 10603 10600 10598 10595 10592 10589
10754 10753 10753 10752 10752 10751 10751 10750 10750 10749 10749 10748 10747 10746 10745 10744 10743 10741 10740 10739 10737 10735 10734 10733 10732 10731 10729 10729 10728 10726 10723 10722 10720 10719 10717 10715 10713 10711 10708 10706 10705 10702 10700 10698 10696 10693 10691 10687 10682 10681 10682 10681 10677 10674 10672 10670 10668 10666 10663 10661 10659 10656 10654 10652 10649 10646 10643 10641 10638 10635 10632 10630 10628 10625 10622 10618 10615 10612 10609 10607 10604 10601 10598 10595 10592 10589 10587 10584
10757 10757 10756 10756 10755 10754 10754 10753 10752 10752 10751 10750 10749 10748 10747 10746 10744 10743 10742 10739 10737 10737 10736 10735 10733 10732 10730 10729 10726 10724 10723 10722 10721 10719 10717 10715 10713 10711 10708 10707 10705 10702 10700 10698 10695 10692 10689 10684 10683 10685 10683 10679 10676 10673 10671 10668 10666 10664 10661 10658 10656 10653 10650 10648 10646 10643 10640 10637 10634 10630 10628 10626 10623 10621 10617 10614 10611 10607 10604 10601 10598 10595 10592 10589 10585 10582 10580 10577
10761 10760 10759 10759 10758 10757 10756 10756 10755 10754 10753 10752 10751 10751 10749 10748 10746 10745 10743 10741 10741 10740 10738 10736 10734 10732 10731 10729 10726 10725 10724 10723 10720 10718 10717 10715 10713 10710 10708 10706 10704 10702 10700 10697 10694 10692 10689 10687 10688 10686 10680 10676 10674 10672 10669 10667 10664 10661 10658 10655 10653 10650 10647 10644 10641 10639 10636 10633 10629 10626 10623 10620 10618 10615 10612 10609 10606 10602 10599 10595 10592 10589 10586 10582 10579 10575 10572 10570
10764 10763 10762 10761 10760 10760 10759 10758 10757 10756 10755 10754 10753 10752 10751 10749 10748 10747 10745 10744 10743 10740 10737 10736 10735 10733 10731 10729 10728 10726 10725 10722 10720 10719 10717 10715 10713 10710 10708 10706 10703 10702 10699 10695 10693 10691 10690 10689 10687 10681 10678 10677 10674 10671 10669 10666 10663 10659 10656 10653 10650 10647 10644 10640 10636 10633 10631 10628 10624 10621 10618 10615 10612 10609 10606 10603 10600 10597 10593 10589 10586 10582 10579 10575 10571 10568 10564 10562
10767 10766 10765 10764 10763 10762 10761 10760 10759 10759 10757 10756 10755 10754 10753 10752 10750 10749 10747 10745 10743 10740 10739 10738 10736 10735 10733 10731 10729 10727 10724 10722 10721 10720 10718 10715 10712 10710 10708 10706 10703 10700 10697 10695 10694 10692 10690 10687 10683 10680 10679 10677 10674 10672 10668 10665 10662 10658 10655 10651 10648 10644 10641 10638 10633 10629 10626 10623 10620 10616 10613 10610 10606 10603 10600 10597 10594 10591 10587 10583 10579 10575 10572 10568 10564 10560 10557 10554
10769 10769 10768 10767 10766 10765 10763 10762 10761 10760 10759 10758 10757 10756 10755 10753 10752 10750 10748 10746 10744 10743 10742 10740 10738 10736 10735 10733 10731 10729 10727 10725 10723 10721 10719 10716 10713 10710 10708 10705 10703 10700 10698 10697 10695 10692 10689 10686 10683 10681 10678 10675 10672 10670 10666 10663 10660 10656 10652 10648 10643 10640 10637 10634 10630 10626 10623 10619 10616 10611 10607 10604 10599 10596 10593 10590 10587 10584 10580 10576 10572 10568 10565 10561 10557 10553 10549 10546
10772 10771 10770 10769 10768 10767 10766 10764 10763 10762 10761 10760 10759 10757 10756 10755 10753 10752 10750 10748 10747 10745 10743 10742 10740 10738 10736 10734 10732 10730 10729 10727 10724 10722 10719 10717 10714 10711 10709 10706 10704 10702 10701 10698 10694 10691 10688 10686 10684 10681 10677 10674 10671 10667 10664 10660 10656 10652 10648 10644 10640 10635 10631 10628 10625 10622 10618 10614 10611 10606 10602 10598 10594 10590 10586 10583 10579 10576 10572 10568 10565 10561 10557 10553 10549 10545 10541 10537
10773 10773 10772 10771 10770 10769 10767 10766 10765 10763 10762 10761 10760 10759 10758 10756 10755 10753 10752 10750 10748 10747 10745 10743 10741 10739 10737 10735 10733 10731 10729 10726 10724 10722 10720 10717 10715 10713 10710 10707 10705 10703 10700 10696 10693 10691 10688 10686 10683 10680 10676 10673 10669 10666 10661 10657 10653 10649 10645 10641 10637 10633 10628 10625 10621 10617 10613 10609 10606 10602 10598 10593 10589 10585 10580 10576 10572 10568 10564 10560 10556 10552 10548 10544 10540 10536 10532 10528
10774 10774 10773 10772 10771 10770 10769 10767 10766 10765 10763 10762 10761 10760 10759 10758 10756 10755 10753 10751 10749 10748 10746 10744 10742 10740 10738 10735 10734 10732 10729 10727 10725 10722 10719 10717 10715 10713 10710 10707 10705 10702 10699 10696 10694 10691 10688 10685 10682 10678 10675 10671 10667 10663 10659 10655 10651 10647 10643 10638 10634 10630 10626 10622 10618 10614 10610 10605 10601 10597 10593 10589 10584 10579 10574 10570 10565 10560 10555 10551 10546 10541 10537 10533 10529 10525 10520 10516
10775 10774 10773 10772 10772 10771 10770 10769 10767 10766 10765 10763 10762 10761 10760 10758 10757 10755 10754 10752 10750 10749 10747 10745 10743 10741 10738 10736 10734 10732 10729 10727 10725 10722 10720 10718 10716 10713 10710 10708 10705 10702 10699 10697 10694 10691 10687 10684 10680 10677 10673 10669 10665 10661 10658 10653 10649 10645 10641 10637 10632 10628 10624 10619 10615 10611 10606 10601 10596 10592 10587 10583 10579 10573 10569 10564 10558 10553 10548 10543 10538 10533 10528 10523 10518 10513 10508 10503
10776 10775 10774 10773 10772 10771 10770 10769 10768 10767 10765 10764 10763 10761 10760 10758 10757 10755 10754 10752 10751 10749 10747 10745 10743 10741 10739 10737 10734 10732 10730 10728 10725 10723 10722 10719 10716 10713 10710 10708 10705 10702 10699 10696 10693 10690 10687 10683 10679 10675 10671 10667 10664 10660 10656 10652 10647 10643 10639 10635 10631 10626 10621 10616 10612 10607 10603 10598 10592 10587 10582 10578 10573 10567 10563 10558 10553 10547 10542 10537 10532 10527 10522 10516 10510 10505 10499 10494
10776 10775 10774 10773 10772 10771 10770 10769 10768 10767 10765 10764 10763 10761 10760 10759 10757 10756 10754 10753 10751 10749 10747 10745 10743 10741 10739 10737 10734 10732 10731 10728 10726 10724 10721 10718 10716 10713 10710 10707 10704 10701 10699 10696 10692 10689 10685 10682 10678 10674 10669 10666 10662 10658 10654 10650 10646 10642 10637 10633 10628 10623 10618 10613 10608 10603 10599 10593 10588 10582 10577 10571 10566 10561 10556 10552 10547 10542 10536 10530 10525 10519 10514 10508 10503 10497 10492 10486
10777 10776 10775 10774 10772 10771 10770 10769 10768 10767 10766 10764 10763 10762 10760 10759 10757 10756 10754 10753 10752 10749 10747 10745 10743 10741 10739 10736 10734 10732 10730 10727 10725 10722 10719 10717 10715 10712 10709 10706 10703 10700 10698 10694 10691 10687 10683 10680 10676 10672 10668 10664 10660 10656 10652 10648 10644 10640 10635 10630 10625 10620 10615 10609 10604 10598 10593 10588 10582 10576 10570 10565 10559 10554 10549 10544 10539 10534 10528 10522 10516 10510 10504 10498 10493 10487 10482 10476
10777 10776 10775 10774 10773 10772 10770 10769 10768 10767 10766 10764 10763 10762 10761 10759 10758 10756 10755 10753 10752 10749 10747 10745 10743 10741 10739 10736 10734 10732 10729 10727 10724 10721 10718 10715 10712 10710 10707 10705 10703 10700 10696 10692 10689 10685 10681 10677 10675 10671 10668 10663 10659 10654 10650 10645 10641 10637 10632 10627 10622 10617 10610 10604 10598 10592 10587 10581 10576 10570 10565 10559 10553 10547 10542 10536 10530 10524 10518 10512 10505 10499 10493 10487 10482 10476 10471 10465
10778 10777 10775 10774 10773 10772 10770 10769 10768 10767 10765 10764 10763 10762 10761 10759 10758 10756 10755 10753 10751 10749 10747 10745 10743 10740 10738 10736 10734 10731 10729 10726 10724 10721 10719 10716 10713 10711 10707 10704 10701 10698 10694 10690 10686 10682 10679 10676 10673 10670 10666 10662 10657 10652 10647 10642 10638 10633 10628 10623 10618 10612 10606 10601 10594 10588 10582 10577 10572 10567 10560 10554 10547 10541 10534 10528 10521 10515 10508 10501 10494 10488 10481 10475 10469 10463 10458 10452
10778 10777 10775 10774 10773 10772 10770 10769 10768 10767 10766 10764 10763 10762 10760 10759 10757 10756 10754 10753 10751 10749 10747 10744 10742 10740 10737 10735 10732 10729 10727 10724 10722 10719 10716 10714 10711 10707 10704 10700 10697 10694 10690 10687 10684 10681 10678 10675 10670 10666 10662 10659 10654 10649 10644 10639 10635 10630 10625 10619 10614 10610 10606 10600 10593 10586 10579 10572 10567 10562 10555 10547 10540 10534 10527 10519 10512 10505 10498 10491 10484 10478 10472 10465 10459 10452 10446 10440
10778 10777 10776 10774 10773 10771 10770 10769 10768 10767 10766 10764 10763 10761 10760 10758 10757 10756 10754 10752 10750 10748 10746 10744 10741 10739 10736 10734 10731 10728 10725 10723 10720 10717 10714 10711 10708 10705 10702 10699 10696 10693 10690 10686 10683 10679 10676 10671 10667 10664 10660 10656 10651 10647 10643 10637 10633 10628 10624 10619 10615 10609 10604 10597 10590 10583 10575 10567 10560 10555 10548 10540 10533 10526 10519 10512 10504 10497 10489 10482 10476 10469 10463 10456 10449 10442 10435 10428
10779 10777 10776 10775 10773 10772 10770 10769 10768 10767 10766 10764 10763 10761 10760 10758 10757 10755 10753 10752 10750 10748 10746 10743 10741 10738 10735 10733 10730 10727 10725 10722 10719 10716 10713 10710 10708 10705 10702 10699 10696 10693 10690 10686 10681 10677 10673 10669 10665 10662 10658 10654 10650 10646 10641 10636 10630 10626 10621 10616 10610 10603 10597 10590 10584 10577 10569 10560 10553 10547 10540 10532 10525 10519 10512 10505 10497 10489 10481 10474 10467 10461 10454 10447 10439 10432 10424 10417
10778 10777 10776 10775 10773 10772 10770 10769 10768 10766 10765 10764 10762 10761 10759 10758 10756 10754 10753 10751 10749 10747 10745 10743 10740 10737 10734 10732 10729 10726 10723 10721 10718 10715 10712 10709 10706 10703 10700 10697 10694 10691 10687 10684 10680 10676 10671 10667 10664 10660 10656 10652 10647 10642 10637 10632 10626 10620 10615 10610 10604 10597 10590 10584 10577 10570 10562 10553 10545 10541 10533 10524 10518 10511 10504 10496 10489 10481 10473 10466 10459 10452 10444 10437 10430 10422 10415 10408
10777 10776 10775 10774 10772 10771 10770 10768 10767 10766 10764 10763 10762 10760 10758 10757 10755 10753 10752 10750 10748 10746 10744 10742 10739 10736 10733 10730 10728 10725 10722 10719 10716 10713 10710 10707 10704 10701 10697 10694 10690 10687 10684 10681 10677 10673 10669 10664 10661 10658 10653 10649 10643 10638 10632 10627 10621 10615 10610 10605 10598 10592 10586 10579 10572 10564 10556 10547 10538 10533 10527 10518 10510 10503 10495 10488 10481 10472 10465 10457 10450 10443 10435 10427 10420 10412 10405 10398
10776 10775 10774 10773 10772 10771 10769 10768 10766 10765 10764 10763 10761 10759 10758 10756 10754 10752 10750 10748 10747 10745 10742 10740 10738 10735 10732 10729 10726 10724 10721 10718 10715 10712 10709 10706 10703 10699 10696 10692 10688 10685 10681 10678 10675 10671 10666 10661 10657 10654 10650 10645 10639 10633 10627 10621 10616 10611 10605 10599 10593 10586 10579 10573 10567 10559 10551 10542 10532 10525 10520 10512 10504 10497 10488 10481 10473 10464 10457 10449 10441 10433 10425 10417 10408 10401 10394 10387
10775 10774 10773 10772 10771 10770 10768 10767 10765 10764 10763 10762 10760 10759 10757 10755 10753 10751 10749 10747 10745 10743 10741 10739 10736 10734 10731 10728 10725 10722 10719 10716 10714 10711 10708 10705 10702 10698 10694 10690 10686 10682 10678 10675 10672 10668 10664 10659 10654 10649 10645 10640 10635 10629 10622 10616 10611 10605 10599 10593 10587 10580 10572 10565 10559 10552 10545 10538 10528 10519 10511 10504 10496 10488 10480 10472 10464 10455 10447 10439 10430 10421 10413 10405 10397 10390 10384 10378
10774 10773 10772 10771 10770 10768 10767 10766 10764 10763 10762 10760 10759 10757 10756 10754 10752 10750 10748 10746 10744 10742 10739 10737 10735 10732 10729 10726 10723 10721 10718 10715 10712 10709 10707 10704 10700 10697 10693 10688 10684 10680 10676 10672 10669 10665 10662 10657 10652 10646 10641 10636 10630 10624 10618 10612 10606 10599 10593 10586 10579 10573 10566 10559 10552 10544 10536 10528 10521 10514 10505 10497 10489 10480 10471 10463 10455 10445 10436 10428 10419 10410 10403 10396 10389 10382 10377 10371
10772 10771 10770 10769 10768 10767 10766 10765 10763 10762 10761 10759 10757 10756 10754 10753 10751 10748 10746 10744 10742 10740 10738 10736 10733 10730 10728 10725 10722 10719 10716 10713 10711 10708 10705 10702 10698 10695 10691 10686 10682 10678 10673 10669 10665 10661 10657 10653 10648 10643 10637 10631 10625 10619 10613 10607 10601 10595 10589 10582 10575 10568 10561 10552 10544 10537 10530 10520 10512 10506 10499 10490 10481 10473 10463 10454 10445 10436 10427 10419 10411 10404 10396 10389 10383 10377 10371 10365
10770 10770 10769 10768 10767 10766 10765 10763 10762 10761 10759 10757 10756 10754 10753 10751 10749 10747 10745 10743 10740 10738 10736 10734 10731 10729 10726 10723 10720 10717 10715 10712 10709 10706 10703 10699 10695 10692 10688 10684 10679 10675 10671 10666 10662 10657 10653 10648 10643 10637 10632 10626 10619 10614 10609 10603 10597 10591 10586 10580 10573 10566 10557 10547 10537 10530 10523 10514 10503 10496 10492 10483 10474 10466 10456 10446 10438 10430 10421 10413 10405 10398 10391 10384 10378 10373 10367 10362
10768 10768 10767 10766 10765 10764 10763 10762 10761 10759 10757 10756 10754 10753 10751 10749 10747 10745 10743 10741 10738 10736 10734 10732 10729 10727 10724 10721 10719 10716 10713 10710 10707 10703 10700 10696 10692 10688 10684 10680 10676 10672 10667 10663 10658 10653 10649 10644 10638 10632 10627 10622 10615 10609 10604 10599 10593 10586 10581 10575 10568 10562 10553 10542 10531 10522 10514 10506 10496 10486 10482 10477 10468 10459 10451 10441 10432 10424 10415 10408 10400 10393 10387 10380 10374 10369 10363 10357
10766 10765 10765 10764 10763 10762 10761 10760 10759 10757 10755 10753 10752 10750 10749 10747 10745 10743 10740 10738 10736 10734 10732 10730 10727 10725 10722 10719 10716 10713 10710 10707 10704 10700 10697 10693 10689 10685 10681 10677 10672 10668 10663 10659 10655 10650 10645 10641 10635 10628 10622 10617 10611 10603 10598 10594 10589 10583 10576 10570 10563 10556 10547 10535 10524 10515 10505 10498 10490 10478 10472 10468 10461 10452 10444 10435 10425 10417 10409 10402 10395 10388 10381 10374 10368 10362 10357 10351
10764 10763 10762 10761 10761 10760 10759 10758 10756 10755 10753 10751 10749 10748 10746 10744 10743 10740 10738 10736 10734 10732 10729 10727 10725 10722 10719 10717 10714 10711 10708 10704 10701 10697 10694 10690 10687 10682 10678 10674 10669 10664 10659 10655 10651 10647 10643 10640 10635 10628 10620 10615 10609 10601 10595 10590 10585 10580 10572 10565 10557 10550 10541 10529 10518 10509 10499 10490 10484 10474 10463 10457 10452 10444 10436 10428 10418 10409 10402 10395 10389 10382 10375 10368 10361 10355 10350 10345
10761 10760 10760 10759 10758 10757 10757 10755 10754 10752 10750 10748 10747 10745 10743 10742 10740 10738 10736 10734 10731 10729 10727 10724 10722 10719 10717 10714 10711 10708 10704 10701 10698 10694 10690 10687 10683 10680 10675 10670 10665 10660 10655 10651 10646 10641 10637 10633 10631 10626 10619 10614 10608 10601 10594 10587 10580 10573 10566 10558 10551 10544 10536 10525 10513 10504 10495 10484 10476 10469 10458 10448 10442 10435 10427 10420 10411 10402 10395 10389 10382 10375 10368 10362 10356 10351 10346 10341
10758 10758 10757 10756 10755 10754 10754 10753 10751 10750 10748 10746 10744 10742 10740 10739 10737 10735 10733 10731 10729 10726 10724 10722 10719 10717 10714 10711 10708 10704 10701 10698 10695 10691 10687 10683 10680 10676 10672 10667 10662 10656 10651 10646 10640 10635 10630 10625 10622 10619 10612 10607 10601 10594 10587 10581 10572 10565 10558 10551 10544 10537 10530 10520 10508 10498 10490 10480 10470 10463 10455 10444 10436 10430 10422 10414 10406 10398 10390 10384 10378 10370 10364 10358 10353 10348 10343 10338
10755 10755 10754 10753 10752 10751 10750 10749 10748 10747 10745 10743 10741 10739 10738 10736 10734 10732 10730 10728 10726 10724 10722 10719 10716 10714 10711 10708 10705 10701 10698 10694 10691 10688 10684 10680 10676 10672 10668 10664 10659 10653 10648 10643 10637 10630 10625 10619 10615 10612 10607 10600 10594 10587 10579 10573 10566 10558 10551 10544 10537 10530 10522 10513 10503 10492 10484 10475 10466 10458 10451 10442 10433 10425 10419 10411 10404 10396 10387 10381 10375 10369 10363 10357 10351 10345 10339 10333
10752 10752 10751 10750 10749 10748 10747 10746 10745 10744 10742 10740 10738 10737 10735 10733 10732 10730 10728 10726 10723 10721 10719 10716 10714 10711 10708 10705 10702 10699 10695 10691 10687 10684 10680 10676 10672 10669 10665 10660 10656 10651 10645 10639 10634 10627 10621 10615 10608 10605 10601 10594 10589 10582 10574 10567 10560 10552 10545 10537 10530 10523 10516 10507 10497 10487 10478 10470 10461 10452 10445 10438 10429 10420 10414 10408 10403 10395 10386 10380 10374 10367 10361 10354 10347 10340 10334 10329
10749 10748 10747 10747 10746 10746 10745 10743 10742 10741 10739 10738 10736 10734 10732 10730 10729 10727 10725 10723 10721 10718 10716 10714 10711 10708 10705 10702 10699 10696 10692 10688 10684 10681 10677 10673 10669 10665 10661 10656 10652 10647 10641 10636 10631 10624 10618 10612 10605 10599 10595 10589 10582 10577 10569 10562 10555 10547 10539 10531 10523 10515 10509 10501 10490 10481 10473 10464 10456 10447 10439 10432 10424 10416 10408 10403 10398 10392 10383 10376 10369 10362 10355 10348 10342 10336 10331 10326
10745 10745 10744 10744 10743 10742 10742 10740 10739 10738 10736 10735 10733 10731 10729 10727 10726 10724 10721 10720 10718 10715 10713 10711 10708 10705 10702 10699 10696 10692 10689 10685 10681 10677 10673 10669 10665 10661 10656 10652 10648 10643 10638 10632 10627 10622 10616 10610 10603 10596 10590 10584 10576 10569 10563 10556 10550 10543 10534 10526 10517 10508 10502 10495 10485 10475 10468 10459 10451 10442 10433 10426 10418 10410 10402 10396 10392 10387 10379 10371 10364 10357 10350 10344 10339 10334 10329 10324
10741 10741 10741 10740 10740 10739 10738 10737 10736 10735 10733 10732 10730 10728 10726 10724 10722 10720 10718 10716 10714 10712 10710 10708 10705 10702 10699 10696 10692 10689 10685 10681 10677 10674 10670 10666 10662 10658 10653 10648 10644 10640 10634 10629 10623 10618 10613 10607 10601 10594 10588 10581 10573 10565 10558 10551 10545 10538 10530 10522 10513 10502 10494 10489 10480 10470 10462 10455 10446 10437 10428 10421 10414 10406 10397 10388 10384 10381 10375 10367 10360 10354 10347 10342 10338 10333 10328 10322
10737 10737 10736 10736 10736 10734 10734 10733 10732 10731 10729 10728 10726 10725 10723 10721 10719 10717 10715 10713 10711 10709 10707 10704 10702 10699 10696 10692 10689 10685 10682 10678 10674 10670 10666 10662 10658 10654 10649 10645 10641 10637 10632 10626 10619 10614 10609 10604 10599 10593 10586 10579 10571 10564 10556 10548 10540 10533 10526 10519 10511 10499 10487 10481 10475 10465 10456 10448 10440 10431 10423 10415 10409 10403 10394 10384 10377 10375 10371 10363 10356 10351 10346 10340 10336 10331 10325 10319